Weather History for KPKV - February, 2014

Change the Weather History Date:

Saturday, February 22, 2014

  Actual Average (KVCT) Record (KVCT)
Temperature  
Mean Temperature 56 °F 59 °F  
Max Temperature 66 °F 69 °F 90 °F (1927)
Min Temperature 47 °F 48 °F 27 °F (1939)
Degree Days  
Heating Degree Days 8 7  
Month to date heating degree days 200  
Since 1 July heating degree days 1052  
Cooling Degree Days 0 1  
Month to date cooling degree days 22  
Year to date cooling degree days 36  
Growing Degree Days 6 (Base 50)    
Moisture  
Dew Point 55 °F    
Average Humidity 85    
Maximum Humidity 97    
Minimum Humidity 75    
Precipitation  
Precipitation 0.00 in 0.07 in 2.50 in (1958)
Month to date precipitation 1.61  
Year to date precipitation 4.13  
Snow  
Snow 0.00 in - - ()
Month to date snowfall  
Since 1 July snowfall  
Snow Depth -    
Sea Level Pressure  
Sea Level Pressure 29.99 in    
Wind  
Wind Speed 9 mph (East)    
Max Wind Speed 17 mph    
Max Gust Speed 21 mph    
Visibility 9 miles    
Events Fog , Rain    
T = Trace of Precipitation, MM = Missing Value Source: NWS Daily Summary

Daily Weather History Graph

Daily Weather History Graph

Search for Another Location

Airport or City:

Trip Planner

Search our weather history database for the weather conditions in past years. The results will help you decide how hot, cold, wet, or windy it might be!

Date:

Astronomy

Feb. 22, 2014 Rise Set
Actual Time 6:58 AM CST 6:22 PM CST
Civil Twilight 6:34 AM CST 6:45 PM CST
Nautical Twilight 6:07 AM CST 7:13 PM CST
Astronomical Twilight 5:39 AM CST 7:40 PM CST
Moon 12:44 AM CST (2/22) 11:46 AM CST (2/22)
Length of Visible Light 12h 11m
Length of Day
11h 23m
Waning Gibbous, 50% of the Moon is Illuminated
Feb 22
Waning Gibbous
Mar 1
New
Mar 8
First Quarter
Mar 16
Full
Mar 23
Last Quarter

Hourly Weather History & Observations

Time (CST) Temp. Dew Point Humidity Pressure Visibility Wind Dir Wind Speed Gust Speed Precip Events Conditions
12:15 AM 54.9 °F 47.7 °F 77% 30.06 in 10.0 mi ESE 6.9 mph - N/A   Clear
12:35 AM 53.4 °F 46.8 °F 78% 30.07 in 10.0 mi ENE 4.6 mph - N/A   Clear
12:55 AM 52.0 °F 46.6 °F 82% 30.07 in 10.0 mi East 6.9 mph - N/A   Clear
1:15 AM 52.0 °F 46.6 °F 82% 30.06 in 10.0 mi East 6.9 mph - N/A   Clear
1:35 AM 50.9 °F 46.4 °F 85% 30.05 in 10.0 mi ENE 6.9 mph - N/A   Clear
1:55 AM 50.5 °F 46.6 °F 86% 30.05 in 10.0 mi East 5.8 mph - N/A   Clear
2:15 AM 48.7 °F 44.6 °F 86% 30.03 in 10.0 mi East 6.9 mph - N/A   Clear
2:35 AM 48.4 °F 45.0 °F 88% 30.03 in 10.0 mi NE 8.1 mph - N/A   Clear
2:55 AM 48.9 °F 45.5 °F 88% 30.01 in 10.0 mi ENE 6.9 mph - N/A   Clear
3:15 AM 48.6 °F 45.3 °F 89% 30.01 in 10.0 mi NNE 6.9 mph - N/A   Clear
3:35 AM 48.2 °F 44.6 °F 87% 30.01 in 10.0 mi ENE 5.8 mph - N/A   Clear
3:55 AM 48.7 °F 46.4 °F 92% 30.00 in 10.0 mi East 5.8 mph - N/A   Clear
4:15 AM 48.4 °F 45.3 °F 89% 30.00 in 10.0 mi NE 4.6 mph - N/A   Clear
4:35 AM 48.6 °F 46.0 °F 91% 30.00 in 10.0 mi ENE 8.1 mph - N/A   Clear
4:55 AM 49.1 °F 46.6 °F 91% 30.01 in 10.0 mi ENE 8.1 mph - N/A   Clear
5:15 AM 48.9 °F 46.6 °F 92% 30.00 in 10.0 mi ENE 6.9 mph - N/A   Clear
5:35 AM 50.0 °F 47.8 °F 92% 30.01 in 10.0 mi NNE 5.8 mph - N/A   Clear
5:55 AM 48.7 °F 46.8 °F 93% 30.01 in 10.0 mi NE 8.1 mph - N/A   Clear
6:15 AM 48.0 °F 45.7 °F 92% 30.02 in 10.0 mi NE 6.9 mph - N/A   Clear
6:35 AM 47.5 °F 45.5 °F 93% 30.02 in 10.0 mi ENE 6.9 mph - N/A   Clear
6:55 AM 48.7 °F 47.1 °F 94% 30.02 in 10.0 mi ENE 6.9 mph - N/A   Clear
7:15 AM 51.6 °F 49.5 °F 92% 30.02 in 10.0 mi ENE 10.4 mph - N/A   Clear
7:35 AM 52.2 °F 49.6 °F 91% 30.02 in 10.0 mi ENE 9.2 mph - N/A   Clear
7:55 AM 54.0 °F 50.9 °F 89% 30.03 in 10.0 mi East 10.4 mph - N/A   Clear
8:15 AM 55.6 °F 51.8 °F 87% 30.03 in 10.0 mi East 8.1 mph - N/A   Clear
8:35 AM 57.6 °F 52.9 °F 84% 30.04 in 10.0 mi East 11.5 mph - N/A   Clear
8:55 AM 59.5 °F 54.1 °F 82% 30.05 in 10.0 mi East 9.2 mph - N/A   Clear
9:15 AM 61.5 °F 55.0 °F 79% 30.05 in 10.0 mi ESE 10.4 mph - N/A   Clear
9:35 AM 63.0 °F 55.8 °F 77% 30.05 in 10.0 mi ESE 13.8 mph - N/A   Clear
9:55 AM 63.9 °F 56.3 °F 76% 30.05 in 10.0 mi ESE 17.3 mph - N/A   Clear
10:15 AM 64.0 °F 56.5 °F 76% 30.05 in 10.0 mi ESE 17.3 mph - N/A   Mostly Cloudy
10:35 AM 65.3 °F 57.2 °F 75% 30.05 in 10.0 mi ESE 13.8 mph - N/A   Mostly Cloudy
10:55 AM 65.1 °F 57.2 °F 75% 30.05 in 10.0 mi ESE 15.0 mph - N/A   Scattered Clouds
11:15 AM 65.7 °F 57.4 °F 75% 30.05 in 10.0 mi ESE 13.8 mph - N/A   Mostly Cloudy
11:35 AM 64.2 °F 57.2 °F 78% 30.05 in 10.0 mi ESE 13.8 mph - N/A   Scattered Clouds
11:55 AM 64.9 °F 57.6 °F 77% 30.04 in 10.0 mi ESE 15.0 mph - N/A   Mostly Cloudy
12:15 PM 65.8 °F 57.9 °F 76% 30.03 in 10.0 mi ESE 13.8 mph 20.7 mph N/A   Overcast
12:35 PM 65.7 °F 58.1 °F 77% 30.02 in 10.0 mi ESE 16.1 mph - N/A   Overcast
12:55 PM 65.3 °F 57.9 °F 77% 30.01 in 10.0 mi East 15.0 mph 19.6 mph N/A   Overcast
1:15 PM 64.8 °F 58.1 °F 79% 30.00 in 10.0 mi ESE 13.8 mph - N/A   Overcast
1:35 PM 64.6 °F 58.1 °F 79% 29.99 in 10.0 mi ESE 11.5 mph - N/A   Overcast
1:55 PM 64.9 °F 58.3 °F 79% 29.98 in 10.0 mi ESE 11.5 mph - N/A   Overcast
2:15 PM 65.3 °F 58.6 °F 79% 29.96 in 10.0 mi East 10.4 mph - N/A   Overcast
2:35 PM 65.8 °F 59.0 °F 79% 29.95 in 10.0 mi ESE 12.7 mph - N/A   Overcast
2:55 PM 65.8 °F 59.0 °F 79% 29.95 in 10.0 mi ESE 12.7 mph - N/A   Overcast
3:15 PM 66.0 °F 59.0 °F 78% 29.94 in 10.0 mi ESE 15.0 mph - N/A   Overcast
3:35 PM 66.2 °F 59.2 °F 78% 29.94 in 10.0 mi ESE 13.8 mph 18.4 mph N/A   Overcast
3:55 PM 65.8 °F 59.0 °F 79% 29.93 in 10.0 mi ESE 13.8 mph 19.6 mph N/A   Overcast
4:15 PM 65.7 °F 59.2 °F 80% 29.93 in 10.0 mi ESE 12.7 mph - N/A   Overcast
4:35 PM 64.8 °F 59.0 °F 82% 29.93 in 10.0 mi ESE 12.7 mph - N/A   Overcast
4:55 PM 64.8 °F 59.2 °F 82% 29.92 in 10.0 mi ESE 16.1 mph - N/A   Overcast
5:15 PM 64.0 °F 59.0 °F 84% 29.92 in 10.0 mi ESE 11.5 mph - N/A   Overcast
5:35 PM 63.5 °F 59.0 °F 85% 29.91 in 10.0 mi ESE 13.8 mph - N/A   Overcast
5:55 PM 63.1 °F 59.0 °F 86% 29.91 in 10.0 mi ESE 11.5 mph - N/A   Overcast
6:15 PM 62.8 °F 58.8 °F 87% 29.92 in 10.0 mi ESE 13.8 mph 17.3 mph N/A   Overcast
6:35 PM 62.6 °F 59.0 °F 88% 29.92 in 10.0 mi ESE 9.2 mph - N/A   Overcast
6:55 PM 62.8 °F 59.0 °F 87% 29.91 in 10.0 mi ESE 12.7 mph - N/A   Overcast
7:15 PM 62.8 °F 59.0 °F 87% 29.92 in 10.0 mi ESE 10.4 mph - N/A   Overcast
7:35 PM 62.6 °F 59.0 °F 88% 29.92 in 10.0 mi ESE 11.5 mph - N/A   Overcast
7:55 PM 62.6 °F 59.2 °F 89% 29.93 in 10.0 mi ESE 11.5 mph - N/A   Overcast
8:15 PM 62.6 °F 59.4 °F 89% 29.92 in 10.0 mi ESE 13.8 mph - N/A   Overcast
8:35 PM 62.2 °F 59.5 °F 91% 29.92 in 10.0 mi ESE 13.8 mph - N/A   Overcast
8:55 PM 61.9 °F 59.9 °F 93% 29.93 in 10.0 mi ESE 10.4 mph - N/A   Overcast
9:15 PM 62.4 °F 60.3 °F 93% 29.93 in 10.0 mi ESE 10.4 mph - N/A   Overcast
9:35 PM 62.6 °F 60.8 °F 94% 29.93 in 10.0 mi ESE 10.4 mph - N/A   Overcast
9:55 PM 62.4 °F 60.6 °F 94% 29.93 in 7.0 mi ESE 9.2 mph - N/A Rain Rain
10:15 PM 62.1 °F 60.8 °F 96% 29.93 in 7.0 mi ESE 5.8 mph - N/A   Overcast
10:35 PM 62.2 °F 60.8 °F 95% 29.93 in 7.0 mi East 4.6 mph - N/A   Overcast
11:00 PM 62.2 °F 60.8 °F 95% 29.93 in 5.0 mi East 4.6 mph - N/A   Overcast
11:15 PM 62.2 °F 61.0 °F 96% 29.93 in 2.5 mi East 4.6 mph - N/A   Overcast
11:35 PM 62.6 °F 61.5 °F 96% 29.93 in 0.5 mi East 5.8 mph - N/A Fog Fog
11:55 PM 62.6 °F 61.7 °F 97% 29.92 in 0.8 mi East 5.8 mph - N/A   Overcast